Location: Crayja
(6.2254°N, 10.6273°W)
Time: 05:48:27
(UTC+00:00)

Cosmos 292 Rocket - Pass Details

Date: 17 February 2020
Orbit: 674 x 694 km, 74.0° (Epoch: 07 April)

Event Time Altitude Azimuth Distance (km) Brightness Sun altitude
Rises 06:26:48 0° 342° (NNW) 3,010 6.8 -8.5°
Reaches altitude 10° 06:29:06 10° 340° (NNW) 2,098 6.0 -8.0°
Maximum altitude 06:33:46 66° 258° (WSW) 735 3.7 -6.9°
Drops below altitude 10° 06:38:29 10° 176° (S) 2,109 6.5 -5.7°
Sets 06:40:48 0° 173° (S) 3,027 7.4 -5.1°
